Change the Weather History Date:

Sunday, April 20, 2014

  Actual Average Record
Temperature  
Mean Temperature 50 °F -  
Max Temperature 66 °F 61 °F 89 °F (1941)
Min Temperature 35 °F 40 °F 19 °F (1926)
Degree Days  
Heating Degree Days 14    
Growing Degree Days 0 (Base 50)    
Moisture  
Dew Point 25 °F    
Average Humidity 42    
Maximum Humidity 70    
Minimum Humidity 22    
Precipitation  
Precipitation 0.00 in - - ()
Sea Level Pressure  
Sea Level Pressure 30.35 in    
Wind  
Wind Speed 5 mph (ENE)    
Max Wind Speed 8 mph    
Max Gust Speed -    
Visibility 10 miles    
Events      
Averages and records for this station are not official NWS values.
T = Trace of Precipitation, MM = Missing Value Source: NWS Daily Summary

Daily Weather History Graph

Daily Weather History Graph

Search for Another Location

Airport or City:

Trip Planner

Search our weather history database for the weather conditions in past years. The results will help you decide how hot, cold, wet, or windy it might be!

Date:

Astronomy

Apr. 20, 2014 Rise Set
Actual Time 6:24 AM EDT 7:56 PM EDT
Civil Twilight 5:56 AM EDT 8:25 PM EDT
Nautical Twilight 5:21 AM EDT 8:59 PM EDT
Astronomical Twilight 4:44 AM EDT 9:36 PM EDT
Moon 12:35 AM EDT (4/20) 10:42 AM EDT (4/20)
Length of Visible Light 14h 28m
Length of Day
13h 31m
Waning Gibbous, 69% of the Moon is Illuminated
Apr 20
Waning Gibbous
Apr 22
Last Quarter
Apr 29
New
May 6
First Quarter
May 14
Full

Hourly Weather History & Observations

Time (EDT) Temp. Windchill Dew Point Humidity Pressure Visibility Wind Dir Wind Speed Gust Speed Precip Events Conditions
12:15 AM 46.4 °F 42.4 °F 21.4 °F 37% 30.36 in 10.0 mi NNE 8.1 mph - N/A   Clear
12:35 AM 45.7 °F 42.0 °F 21.6 °F 38% 30.36 in 10.0 mi NNE 6.9 mph - N/A   Clear
12:55 AM 44.8 °F 40.4 °F 22.8 °F 42% 30.36 in 10.0 mi NE 8.1 mph - N/A   Clear
1:15 AM 44.6 °F 41.4 °F 22.6 °F 42% 30.37 in 10.0 mi NNE 5.8 mph - N/A   Clear
1:35 AM 44.2 °F 40.3 °F 22.5 °F 42% 30.36 in 10.0 mi NNE 6.9 mph - N/A   Clear
1:55 AM 43.7 °F 40.3 °F 23.0 °F 44% 30.37 in 10.0 mi NNE 5.8 mph - N/A   Clear
2:15 AM 43.2 °F 40.5 °F 23.7 °F 46% 30.36 in 10.0 mi NNE 4.6 mph - N/A   Clear
2:35 AM 42.3 °F 40.5 °F 24.3 °F 49% 30.37 in 10.0 mi NNE 3.5 mph - N/A   Clear
2:55 AM 42.1 °F 40.2 °F 24.4 °F 50% 30.36 in 10.0 mi NE 3.5 mph - N/A   Clear
3:15 AM 41.9 °F 38.2 °F 24.4 °F 50% 30.36 in 10.0 mi NNE 5.8 mph - N/A   Clear
3:35 AM 39.7 °F 36.5 °F 24.6 °F 55% 30.37 in 10.0 mi NE 4.6 mph - N/A   Clear
3:55 AM 40.5 °F 36.5 °F 24.4 °F 53% 30.37 in 10.0 mi NNE 5.8 mph - N/A   Clear
4:15 AM 40.3 °F 36.3 °F 24.6 °F 54% 30.37 in 10.0 mi NE 5.8 mph - N/A   Clear
4:35 AM 41.0 °F 39.0 °F 24.4 °F 52% 30.38 in 10.0 mi NE 3.5 mph - N/A   Clear
4:55 AM 40.5 °F - 24.3 °F 52% 30.38 in 10.0 mi Calm Calm - N/A   Clear
5:15 AM 39.7 °F 36.5 °F 24.4 °F 54% 30.39 in 10.0 mi NE 4.6 mph - N/A   Clear
5:35 AM 39.9 °F - 23.9 °F 53% 30.39 in 10.0 mi Calm Calm - N/A   Clear
5:53 AM 39.2 °F 34.2 °F 26.6 °F 61% 30.40 in 10.0 mi NE 6.9 mph - N/A   Clear
6:53 AM 35.6 °F - 26.6 °F 70% 30.42 in 10.0 mi Calm Calm - N/A   Clear
7:53 AM 39.2 °F - 26.6 °F 61% 30.43 in 10.0 mi Calm Calm - N/A   Clear
8:53 AM 46.4 °F 42.9 °F 28.4 °F 50% 30.42 in 10.0 mi NE 6.9 mph - N/A   Clear
9:55 AM 51.8 °F - 28.4 °F 41% 30.42 in 10.0 mi Calm Calm - N/A   Clear
10:53 AM 55.4 °F - 28.4 °F 36% 30.41 in 10.0 mi Calm Calm - N/A   Clear
11:53 AM 55.4 °F - 28.4 °F 36% 30.41 in 10.0 mi Calm Calm - N/A   Clear
12:53 PM 60.8 °F - 26.6 °F 27% 30.37 in 10.0 mi Calm Calm - N/A   Clear
2:53 PM 64.4 °F - 24.8 °F 22% 30.33 in 10.0 mi SW 6.9 mph - N/A   Clear
3:53 PM 64.4 °F - 24.8 °F 22% 30.31 in 10.0 mi SW 4.6 mph - N/A   Clear
5:53 PM 66.2 °F - 26.6 °F 23% 30.27 in 10.0 mi South 8.1 mph - N/A   Clear
7:53 PM 60.8 °F - 28.4 °F 29% 30.26 in 10.0 mi SSE 6.9 mph - N/A   Clear
8:53 PM 59.0 °F - 30.2 °F 34% 30.27 in 10.0 mi SSE 5.8 mph - N/A   Clear
9:55 PM 56.3 °F - 26.2 °F 32% 30.27 in 10.0 mi SSE 4.6 mph - N/A   Clear
10:15 PM 55.4 °F - 26.1 °F 32% 30.27 in 10.0 mi SSE 5.8 mph - N/A   Clear
10:35 PM 55.2 °F - 25.7 °F 32% 30.27 in 10.0 mi SSE 4.6 mph - N/A   Clear
10:55 PM 54.5 °F - 26.1 °F 33% 30.27 in 10.0 mi South 4.6 mph - N/A   Clear
11:15 PM 53.8 °F - 26.2 °F 35% 30.26 in 10.0 mi SSE 3.5 mph - N/A   Clear
11:35 PM 52.5 °F - 26.6 °F 37% 30.26 in 10.0 mi Calm Calm - N/A   Clear
11:55 PM 52.7 °F - 26.1 °F 36% 30.26 in 10.0 mi Calm Calm - N/A   Clear